,,PA_Meas_PMT16A,,PR_Meas_QMR101_102,,RH_Meas_QMH101,,SR_Meas_QMS101,,TA_Meas_QMH101,,GenWind,,GenWind,
time,status,PA,status,PR,status,RH,status,SR,status,TA,status,DirAvg,status,SpdAvg,
2011-04-21, 00:00:04,VALID,918.734,VALID,0,VALID,97.2214,VALID,0.107441,VALID,19.5843,VALID,164,VALID,0.501953,
2011-04-21, 00:01:04,VALID,918.735,VALID,0,VALID,97.2519,VALID,0.107441,VALID,19.6038,VALID,164,VALID,0.707422,
2011-04-21, 00:02:04,VALID,918.716,VALID,0,VALID,97.229,VALID,0,VALID,19.5843,VALID,164,VALID,0.839063,
2011-04-21, 00:03:04,VALID,918.736,VALID,0.2,VALID,97.229,VALID,0,VALID,19.6038,VALID,164,VALID,0.585938,
2011-04-21, 00:04:04,VALID,918.734,VALID,0,VALID,97.2443,VALID,0.107441,VALID,19.6038,VALID,164,VALID,0.782422,
2011-04-21, 00:05:04,VALID,918.704,VALID,0,VALID,97.2367,VALID,0,VALID,19.5843,VALID,164,VALID,0.853125,
2011-04-21, 00:06:04,VALID,918.703,VALID,0,VALID,97.2519,VALID,0,VALID,19.6038,VALID,164,VALID,0.799609,
2011-04-21, 00:07:04,VALID,918.703,VALID,0,VALID,97.2367,VALID,0,VALID,19.6263,VALID,164,VALID,0.609766,
2011-04-21, 00:08:04,VALID,918.692,VALID,0.2,VALID,97.2443,VALID,0,VALID,19.6053,VALID,164,VALID,0.785547,
2011-04-21, 00:09:04,VALID,918.71,VALID,0,VALID,97.2367,VALID,0,VALID,19.6053,VALID,163,VALID,0.744531,
2011-04-21, 00:10:04,VALID,918.726,VALID,0,VALID,97.2519,VALID,0,VALID,19.6248,VALID,163,VALID,0.874219,
2011-04-21, 00:11:04,VALID,918.697,VALID,0,VALID,97.2595,VALID,0,VALID,19.5648,VALID,163,VALID,0.559766,
2011-04-21, 00:12:04,VALID,918.706,VALID,0,VALID,97.2748,VALID,0,VALID,19.5663,VALID,163,VALID,0.724609,
2011-04-21, 00:13:04,VALID,918.701,VALID,0.2,VALID,97.2595,VALID,0,VALID,19.5468,VALID,163,VALID,0.460156,
2011-04-21, 00:14:04,VALID,918.688,VALID,0,VALID,97.2748,VALID,0,VALID,19.5663,VALID,163,VALID,0.773828,
2011-04-21, 00:15:04,VALID,918.679,VALID,0,VALID,97.2748,VALID,0,VALID,19.5858,VALID,163,VALID,0.866016,
2011-04-21, 00:16:04,VALID,918.713,VALID,0,VALID,97.2672,VALID,0,VALID,19.5273,VALID,162,VALID,0.854688,
2011-04-21, 00:17:04,VALID,918.712,VALID,0,VALID,97.2672,VALID,0,VALID,19.5273,VALID,162,VALID,0.680078,
2011-04-21, 00:18:04,VALID,918.691,VALID,0.2,VALID,97.2595,VALID,0,VALID,19.6053,VALID,162,VALID,0.662891,
2011-04-21, 00:19:04,VALID,918.686,VALID,0,VALID,97.2595,VALID,0,VALID,19.5258,VALID,162,VALID,0.739844,
2011-04-21, 00:20:04,VALID,918.69,VALID,0,VALID,97.2595,VALID,0,VALID,19.5663,VALID,162,VALID,0.730078,
2011-04-21, 00:21:04,VALID,918.663,VALID,0,VALID,97.2748,VALID,0,VALID,19.5273,VALID,162,VALID,0.850391,
2011-04-21, 00:22:04,VALID,918.674,VALID,0.2,VALID,97.2748,VALID,0,VALID,19.5063,VALID,162,VALID,0.822656,
2011-04-21, 00:23:04,VALID,918.645,VALID,0,VALID,97.2824,VALID,0,VALID,19.5663,VALID,162,VALID,0.796094,
2011-04-21, 00:24:04,VALID,918.604,VALID,0,VALID,97.3053,VALID,0,VALID,19.5258,VALID,162,VALID,0.729297,
2011-04-21, 00:25:04,VALID,918.634,VALID,0.2,VALID,97.29,VALID,0,VALID,19.5678,VALID,162,VALID,0.573047,
2011-04-21, 00:26:04,VALID,918.621,VALID,0,VALID,97.2977,VALID,0,VALID,19.5888,VALID,162,VALID,0.499609,
2011-04-21, 00:27:04,VALID,918.622,VALID,0,VALID,97.2977,VALID,0,VALID,19.4644,VALID,162,VALID,0.531641,
2011-04-21, 00:28:04,VALID,918.586,VALID,0.2,VALID,97.2977,VALID,0,VALID,19.5258,VALID,162,VALID,0.555078,
2011-04-21, 00:29:04,VALID,918.571,VALID,0,VALID,97.3053,VALID,0,VALID,19.4644,VALID,162,VALID,0.677734,
2011-04-21, 00:30:04,VALID,918.562,VALID,0.2,VALID,97.2824,VALID,0,VALID,19.4853,VALID,162,VALID,0.448047,
2011-04-21, 00:31:04,VALID,918.554,VALID,0,VALID,97.3053,VALID,0,VALID,19.5078,VALID,162,VALID,0.585547,
2011-04-21, 00:32:04,VALID,918.558,VALID,0,VALID,97.2977,VALID,0,VALID,19.5273,VALID,162,VALID,0.4375,
2011-04-21, 00:33:04,VALID,918.563,VALID,0.2,VALID,97.3053,VALID,0,VALID,19.4463,VALID,162,VALID,0.353516,
2011-04-21, 00:34:04,VALID,918.565,VALID,0,VALID,97.3129,VALID,0,VALID,19.5078,VALID,162,VALID,0.262109,
2011-04-21, 00:35:04,VALID,918.587,VALID,0,VALID,97.3205,VALID,0,VALID,19.5063,VALID,162,VALID,0.645703,
2011-04-21, 00:36:04,VALID,918.578,VALID,0.2,VALID,97.3205,VALID,0,VALID,19.5078,VALID,162,VALID,0.630469,
2011-04-21, 00:37:04,VALID,918.566,VALID,0,VALID,97.3129,VALID,0,VALID,19.5303,VALID,162,VALID,0.710938,
2011-04-21, 00:38:04,VALID,918.577,VALID,0,VALID,97.3053,VALID,0,VALID,19.4883,VALID,162,VALID,0.609375,
2011-04-21, 00:39:04,VALID,918.583,VALID,0,VALID,97.3358,VALID,0,VALID,19.4688,VALID,162,VALID,0.630078,
2011-04-21, 00:40:04,VALID,918.555,VALID,0.2,VALID,97.3281,VALID,0,VALID,19.4868,VALID,162,VALID,0.694141,
2011-04-21, 00:41:04,VALID,918.546,VALID,0,VALID,97.3205,VALID,0,VALID,19.5078,VALID,162,VALID,0.575781,
2011-04-21, 00:42:04,VALID,918.541,VALID,0,VALID,97.3205,VALID,0,VALID,19.4883,VALID,162,VALID,0.502344,
2011-04-21, 00:43:04,VALID,918.521,VALID,0,VALID,97.3358,VALID,0,VALID,19.4673,VALID,162,VALID,0.556641,
2011-04-21, 00:44:04,VALID,918.525,VALID,0,VALID,97.351,VALID,0,VALID,19.5273,VALID,162,VALID,0.853516,
2011-04-21, 00:45:04,VALID,918.51,VALID,0.2,VALID,97.3358,VALID,0,VALID,19.4883,VALID,321,VALID,0.989062,
2011-04-21, 00:46:04,VALID,918.522,VALID,0,VALID,97.3434,VALID,0,VALID,19.4493,VALID,321,VALID,0.635547,
2011-04-21, 00:47:04,VALID,918.525,VALID,0,VALID,97.3129,VALID,0,VALID,19.4478,VALID,321,VALID,0.647266,
2011-04-21, 00:48:04,VALID,918.508,VALID,0,VALID,97.3358,VALID,0,VALID,19.4688,VALID,321,VALID,0.236328,
2011-04-21, 00:49:04,VALID,918.474,VALID,0,VALID,97.3205,VALID,0,VALID,19.4088,VALID,321,VALID,1.0918,
2011-04-21, 00:50:04,VALID,918.496,VALID,0.2,VALID,97.3434,VALID,0,VALID,19.3908,VALID,322,VALID,0.8375,
2011-04-21, 00:51:04,VALID,918.489,VALID,0,VALID,97.3358,VALID,0,VALID,19.3323,VALID,321,VALID,0.597266,
2011-04-21, 00:52:04,VALID,918.467,VALID,0,VALID,97.3358,VALID,0,VALID,19.3518,VALID,322,VALID,0.798047,
2011-04-21, 00:53:04,VALID,918.482,VALID,0,VALID,97.3358,VALID,0,VALID,19.3128,VALID,322,VALID,0.599609,
2011-04-21, 00:54:04,VALID,918.486,VALID,0,VALID,97.3358,VALID,0,VALID,19.2933,VALID,322,VALID,0.647266,
2011-04-21, 00:55:04,VALID,918.474,VALID,0,VALID,97.3586,VALID,0,VALID,19.2933,VALID,322,VALID,0.165625,
2011-04-21, 00:56:04,VALID,918.472,VALID,0,VALID,97.3586,VALID,0,VALID,19.2723,VALID,322,VALID,0.646094,
2011-04-21, 00:57:04,VALID,918.467,VALID,0,VALID,97.3358,VALID,0,VALID,19.2738,VALID,322,VALID,0.522656,
2011-04-21, 00:58:04,VALID,918.455,VALID,0.2,VALID,97.3434,VALID,0,VALID,19.2543,VALID,322,VALID,0.111328,
2011-04-21, 00:59:04,VALID,918.468,VALID,0,VALID,97.3815,VALID,0,VALID,19.2543,VALID,322,VALID,0.00585938,
2011-04-21, 01:00:04,VALID,918.473,VALID,0,VALID,97.3663,VALID,0,VALID,19.2738,VALID,322,VALID,0.00273437,
2011-04-21, 01:01:04,VALID,918.471,VALID,0,VALID,97.3815,VALID,0,VALID,19.2348,VALID,322,VALID,0.180078,
2011-04-21, 01:02:04,VALID,918.495,VALID,0,VALID,97.3815,VALID,0,VALID,19.2153,VALID,322,VALID,0.0628906,
2011-04-21, 01:03:04,VALID,918.472,VALID,0,VALID,97.3663,VALID,0,VALID,19.2139,VALID,322,VALID,0.403125,
2011-04-21, 01:04:04,VALID,918.466,VALID,0.2,VALID,97.3968,VALID,0,VALID,19.2543,VALID,322,VALID,0.359766,
2011-04-21, 01:05:04,VALID,918.446,VALID,0,VALID,97.3968,VALID,0,VALID,19.2738,VALID,322,VALID,0.482031,
2011-04-21, 01:06:04,VALID,918.46,VALID,0,VALID,97.3891,VALID,0,VALID,19.2738,VALID,322,VALID,0.45,
2011-04-21, 01:07:04,VALID,918.444,VALID,0,VALID,97.3891,VALID,0,VALID,19.2948,VALID,322,VALID,0.308203,
2011-04-21, 01:08:04,VALID,918.443,VALID,0,VALID,97.4044,VALID,0,VALID,19.2738,VALID,322,VALID,0.258594,
2011-04-21, 01:09:04,VALID,918.416,VALID,0,VALID,97.3891,VALID,0,VALID,19.2933,VALID,322,VALID,0.0921875,
2011-04-21, 01:10:04,VALID,918.427,VALID,0,VALID,97.3891,VALID,0,VALID,19.2753,VALID,322,VALID,0,
2011-04-21, 01:11:04,VALID,918.408,VALID,0,VALID,97.3968,VALID,0,VALID,19.3128,VALID,322,VALID,0,
2011-04-21, 01:12:04,VALID,918.389,VALID,0,VALID,97.3968,VALID,0,VALID,19.2933,VALID,322,VALID,0.335156,
2011-04-21, 01:13:04,VALID,918.364,VALID,0.2,VALID,97.4044,VALID,0,VALID,19.2738,VALID,322,VALID,0.391797,
2011-04-21, 01:14:04,VALID,918.377,VALID,0,VALID,97.4196,VALID,0,VALID,19.3172,VALID,322,VALID,0,
2011-04-21, 01:15:04,VALID,918.345,VALID,0,VALID,97.3968,VALID,0,VALID,19.1958,VALID,322,VALID,0,
2011-04-21, 01:16:04,VALID,918.337,VALID,0,VALID,97.3891,VALID,0,VALID,19.2153,VALID,322,VALID,0,
2011-04-21, 01:17:04,VALID,918.291,VALID,0,VALID,97.3815,VALID,0,VALID,19.1958,VALID,322,VALID,0.213281,
2011-04-21, 01:18:04,VALID,918.295,VALID,0,VALID,97.3968,VALID,0,VALID,19.2153,VALID,322,VALID,0.0136719,
2011-04-21, 01:19:04,VALID,918.281,VALID,0,VALID,97.3968,VALID,0,VALID,19.1568,VALID,322,VALID,0.269922,
2011-04-21, 01:20:04,VALID,918.227,VALID,0,VALID,97.4044,VALID,0,VALID,19.1178,VALID,322,VALID,0.172266,
2011-04-21, 01:21:04,VALID,918.234,VALID,0.2,VALID,97.4044,VALID,0,VALID,19.0788,VALID,322,VALID,0.00195313,
2011-04-21, 01:22:04,VALID,918.228,VALID,0,VALID,97.4273,VALID,0,VALID,19.0983,VALID,322,VALID,0,
2011-04-21, 01:23:04,VALID,918.245,VALID,0,VALID,97.3891,VALID,0,VALID,19.0398,VALID,322,VALID,0,
2011-04-21, 01:24:04,VALID,918.218,VALID,0,VALID,97.4196,VALID,0,VALID,19.0593,VALID,322,VALID,0,
2011-04-21, 01:25:04,VALID,918.206,VALID,0,VALID,97.412,VALID,0,VALID,19.0788,VALID,322,VALID,0,
2011-04-21, 01:26:05,VALID,918.175,VALID,0,VALID,97.412,VALID,0,VALID,19.0983,VALID,322,VALID,0,
2011-04-21, 01:27:05,VALID,918.148,VALID,0,VALID,97.4349,VALID,0,VALID,19.0593,VALID,322,VALID,0,
2011-04-21, 01:28:05,VALID,918.159,VALID,0.2,VALID,97.4196,VALID,0,VALID,19.1178,VALID,322,VALID,0,
2011-04-21, 01:29:05,VALID,918.141,VALID,0,VALID,97.412,VALID,0,VALID,19.1778,VALID,322,VALID,0,
2011-04-21, 01:30:05,VALID,918.12,VALID,0,VALID,97.4349,VALID,0,VALID,19.0983,VALID,322,VALID,0.0328125,
2011-04-21, 01:31:05,VALID,918.108,VALID,0,VALID,97.4273,VALID,0,VALID,19.0398,VALID,322,VALID,0,
2011-04-21, 01:32:05,VALID,918.089,VALID,0,VALID,97.4425,VALID,0,VALID,19.0788,VALID,322,VALID,0,
2011-04-21, 01:33:05,VALID,918.101,VALID,0,VALID,97.4196,VALID,0,VALID,19.0817,VALID,321,VALID,0,
2011-04-21, 01:34:05,VALID,918.086,VALID,0.2,VALID,97.4425,VALID,0,VALID,19.0608,VALID,322,VALID,0.267188,
2011-04-21, 01:35:05,VALID,918.075,VALID,0,VALID,97.4425,VALID,0,VALID,19.0218,VALID,322,VALID,0.309375,
2011-04-21, 01:36:05,VALID,918.045,VALID,0,VALID,97.4196,VALID,0,VALID,18.9814,VALID,322,VALID,0.334375,
2011-04-21, 01:37:05,VALID,918.072,VALID,0,VALID,97.4425,VALID,0,VALID,18.9799,VALID,322,VALID,0.319922,
2011-04-21, 01:38:05,VALID,918.059,VALID,0,VALID,97.4501,VALID,0,VALID,19.0037,VALID,322,VALID,0.0449219,
2011-04-21, 01:39:05,VALID,918.034,VALID,0,VALID,97.4577,VALID,0,VALID,18.9785,VALID,321,VALID,0.117578,
2011-04-21, 01:40:05,VALID,918.031,VALID,0,VALID,97.4577,VALID,0.107441,VALID,19.0008,VALID,322,VALID,0,
2011-04-21, 01:41:05,VALID,918.039,VALID,0,VALID,97.4501,VALID,0,VALID,18.9395,VALID,322,VALID,0,
2011-04-21, 01:42:05,VALID,918.011,VALID,0,VALID,97.4654,VALID,0,VALID,18.9619,VALID,322,VALID,0,
2011-04-21, 01:43:05,VALID,918.006,VALID,0,VALID,97.4501,VALID,0,VALID,18.9005,VALID,322,VALID,0,
2011-04-21, 01:44:05,VALID,917.986,VALID,0,VALID,97.4425,VALID,0,VALID,18.9619,VALID,322,VALID,0,
2011-04-21, 01:45:05,VALID,917.966,VALID,0.2,VALID,97.4806,VALID,0.107441,VALID,18.9814,VALID,321,VALID,0,
2011-04-21, 01:46:05,VALID,917.927,VALID,0,VALID,97.4654,VALID,0.107441,VALID,18.9799,VALID,321,VALID,0,
2011-04-21, 01:47:05,VALID,917.917,VALID,0,VALID,97.4806,VALID,0.107441,VALID,19.0008,VALID,322,VALID,0.255859,
2011-04-21, 01:48:05,VALID,917.894,VALID,0,VALID,97.4654,VALID,0,VALID,19.0232,VALID,321,VALID,0.321484,
2011-04-21, 01:49:05,VALID,917.917,VALID,0,VALID,97.473,VALID,0,VALID,18.9828,VALID,322,VALID,0.372266,
2011-04-21, 01:50:05,VALID,917.921,VALID,0,VALID,97.4501,VALID,0,VALID,18.9619,VALID,322,VALID,0.643359,
2011-04-21, 01:51:05,VALID,917.893,VALID,0,VALID,97.473,VALID,0.107441,VALID,18.9229,VALID,322,VALID,0.65,
2011-04-21, 01:52:05,VALID,917.908,VALID,0,VALID,97.4577,VALID,0,VALID,18.8839,VALID,322,VALID,0.767578,
2011-04-21, 01:53:05,VALID,917.884,VALID,0,VALID,97.473,VALID,0,VALID,18.9048,VALID,321,VALID,0.536719,
2011-04-21, 01:54:05,VALID,917.879,VALID,0,VALID,97.473,VALID,0,VALID,18.9229,VALID,322,VALID,0.684766,
2011-04-21, 01:55:05,VALID,917.856,VALID,0.2,VALID,97.4806,VALID,0,VALID,18.9034,VALID,322,VALID,0.649609,
2011-04-21, 01:56:05,VALID,917.868,VALID,0,VALID,97.4806,VALID,0,VALID,18.9034,VALID,322,VALID,0.554297,
2011-04-21, 01:57:05,VALID,917.874,VALID,0,VALID,97.4959,VALID,0,VALID,18.9243,VALID,322,VALID,0.583203,
2011-04-21, 01:58:05,VALID,917.849,VALID,0,VALID,97.4882,VALID,0,VALID,18.8839,VALID,322,VALID,0.800391,
2011-04-21, 01:59:05,VALID,917.841,VALID,0,VALID,97.4654,VALID,0,VALID,18.9048,VALID,322,VALID,0.689062,
2011-04-21, 02:00:05,VALID,917.825,VALID,0,VALID,97.4806,VALID,0,VALID,18.9048,VALID,322,VALID,1.21406,
2011-04-21, 02:01:05,VALID,917.837,VALID,0,VALID,97.4806,VALID,0,VALID,18.8839,VALID,322,VALID,0.749219,
2011-04-21, 02:02:05,VALID,917.797,VALID,0,VALID,97.4882,VALID,0,VALID,18.9034,VALID,322,VALID,1.06641,
2011-04-21, 02:03:05,VALID,917.797,VALID,0,VALID,97.5035,VALID,0,VALID,18.9048,VALID,322,VALID,1.01406,
2011-04-21, 02:04:05,VALID,917.784,VALID,0,VALID,97.5035,VALID,0,VALID,18.9438,VALID,322,VALID,0.722266,
2011-04-21, 02:05:05,VALID,917.788,VALID,0,VALID,97.4882,VALID,0,VALID,18.9229,VALID,322,VALID,0.780078,
2011-04-21, 02:06:05,VALID,917.77,VALID,0,VALID,97.4959,VALID,0,VALID,18.9424,VALID,322,VALID,0.812109,
2011-04-21, 02:07:05,VALID,917.747,VALID,0,VALID,97.4959,VALID,0.107441,VALID,18.9019,VALID,322,VALID,0.707812,
2011-04-21, 02:08:05,VALID,917.761,VALID,0,VALID,97.5111,VALID,0,VALID,18.9229,VALID,322,VALID,0.832812,
2011-04-21, 02:09:05,VALID,917.727,VALID,0,VALID,97.5035,VALID,0.107441,VALID,18.9019,VALID,322,VALID,0.533594,
2011-04-21, 02:10:05,VALID,917.713,VALID,0,VALID,97.5035,VALID,0.107441,VALID,18.9019,VALID,322,VALID,0.646484,
2011-04-21, 02:11:05,VALID,917.687,VALID,0,VALID,97.5035,VALID,0,VALID,18.8839,VALID,322,VALID,0.777344,
2011-04-21, 02:12:05,VALID,917.712,VALID,0,VALID,97.4882,VALID,0.107441,VALID,18.9019,VALID,322,VALID,0.719531,
2011-04-21, 02:13:05,VALID,917.701,VALID,0.2,VALID,97.4959,VALID,0.107441,VALID,18.8644,VALID,322,VALID,0.639063,
2011-04-21, 02:14:05,VALID,917.689,VALID,0,VALID,97.5187,VALID,0,VALID,18.824,VALID,322,VALID,0.796094,
2011-04-21, 02:15:05,VALID,917.677,VALID,0,VALID,97.5035,VALID,0,VALID,18.8644,VALID,322,VALID,0.964453,
2011-04-21, 02:16:05,VALID,917.704,VALID,0,VALID,97.5187,VALID,0.107441,VALID,18.8449,VALID,322,VALID,0.907031,
2011-04-21, 02:17:05,VALID,917.648,VALID,0,VALID,97.5187,VALID,0.107441,VALID,18.8045,VALID,322,VALID,0.871875,
2011-04-21, 02:18:05,VALID,917.661,VALID,0,VALID,97.5035,VALID,0.107441,VALID,18.785,VALID,322,VALID,1.01602,
2011-04-21, 02:19:05,VALID,917.626,VALID,0,VALID,97.5187,VALID,0.107441,VALID,18.8254,VALID,322,VALID,1.04102,
2011-04-21, 02:20:05,VALID,917.622,VALID,0,VALID,97.5264,VALID,0.107441,VALID,18.7655,VALID,322,VALID,0.921094,
2011-04-21, 02:21:05,VALID,917.607,VALID,0,VALID,97.5187,VALID,0.107441,VALID,18.746,VALID,322,VALID,0.723047,
2011-04-21, 02:22:05,VALID,917.581,VALID,0,VALID,97.5264,VALID,0,VALID,18.7669,VALID,322,VALID,0.622656,
2011-04-21, 02:23:05,VALID,917.581,VALID,0,VALID,97.5187,VALID,0,VALID,18.7683,VALID,323,VALID,0.796484,
2011-04-21, 02:24:05,VALID,917.559,VALID,0,VALID,97.5416,VALID,0,VALID,18.7474,VALID,323,VALID,0.805469,
2011-04-21, 02:25:05,VALID,917.533,VALID,0,VALID,97.5187,VALID,0,VALID,18.7279,VALID,323,VALID,0.564453,
2011-04-21, 02:26:05,VALID,917.506,VALID,0,VALID,97.5264,VALID,0,VALID,18.7279,VALID,322,VALID,0.345313,
2011-04-21, 02:27:05,VALID,917.493,VALID,0,VALID,97.534,VALID,0,VALID,18.6889,VALID,323,VALID,0.635938,
2011-04-21, 02:28:05,VALID,917.456,VALID,0.2,VALID,97.5111,VALID,0,VALID,18.6694,VALID,323,VALID,0.684766,
2011-04-21, 02:29:05,VALID,917.473,VALID,0,VALID,97.534,VALID,0,VALID,18.6694,VALID,323,VALID,0.711719,
2011-04-21, 02:30:05,VALID,917.423,VALID,0,VALID,97.5416,VALID,0,VALID,18.6889,VALID,323,VALID,0.656641,
2011-04-21, 02:31:05,VALID,917.434,VALID,0,VALID,97.534,VALID,0,VALID,18.7098,VALID,323,VALID,0.673828,
2011-04-21, 02:32:05,VALID,917.416,VALID,0,VALID,97.5264,VALID,0,VALID,18.6889,VALID,322,VALID,0.714453,
2011-04-21, 02:33:05,VALID,917.405,VALID,0,VALID,97.5645,VALID,0,VALID,18.7084,VALID,322,VALID,0.792578,
2011-04-21, 02:34:05,VALID,917.367,VALID,0,VALID,97.5492,VALID,0,VALID,18.7279,VALID,176,VALID,0.903125,
2011-04-21, 02:35:05,VALID,917.407,VALID,0,VALID,97.534,VALID,0,VALID,18.7488,VALID,176,VALID,1.00977,
2011-04-21, 02:36:05,VALID,917.379,VALID,0,VALID,97.5492,VALID,0,VALID,18.7279,VALID,176,VALID,0.701563,
2011-04-21, 02:37:05,VALID,917.337,VALID,0,VALID,97.5569,VALID,0,VALID,18.7265,VALID,176,VALID,0.789844,
2011-04-21, 02:38:05,VALID,917.296,VALID,0,VALID,97.5721,VALID,0,VALID,18.7279,VALID,176,VALID,0.664453,
2011-04-21, 02:39:05,VALID,917.298,VALID,0,VALID,97.5492,VALID,0,VALID,18.7878,VALID,176,VALID,0.657031,
2011-04-21, 02:40:05,VALID,917.251,VALID,0,VALID,97.5416,VALID,0,VALID,18.8268,VALID,176,VALID,0.529688,
2011-04-21, 02:41:05,VALID,917.267,VALID,0,VALID,97.5645,VALID,0,VALID,18.8268,VALID,176,VALID,0.521875,
2011-04-21, 02:42:05,VALID,917.26,VALID,0.2,VALID,97.5492,VALID,0,VALID,18.8059,VALID,176,VALID,0.440234,
2011-04-21, 02:43:05,VALID,917.231,VALID,0,VALID,97.5721,VALID,0,VALID,18.8268,VALID,176,VALID,0.428906,
2011-04-21, 02:44:05,VALID,917.219,VALID,0,VALID,97.5569,VALID,0,VALID,18.8254,VALID,176,VALID,0.500781,
2011-04-21, 02:45:05,VALID,917.188,VALID,0,VALID,97.5492,VALID,0,VALID,18.8463,VALID,176,VALID,0.527344,
2011-04-21, 02:46:05,VALID,917.165,VALID,0,VALID,97.5645,VALID,0,VALID,18.8073,VALID,176,VALID,0.619531,
2011-04-21, 02:47:05,VALID,917.124,VALID,0,VALID,97.5492,VALID,0,VALID,18.8449,VALID,176,VALID,0.584766,
2011-04-21, 02:48:05,VALID,917.086,VALID,0,VALID,97.5569,VALID,0,VALID,18.8254,VALID,176,VALID,0.628125,
2011-04-21, 02:49:05,VALID,917.09,VALID,0,VALID,97.5569,VALID,0,VALID,18.8254,VALID,176,VALID,0.861719,
2011-04-21, 02:50:05,VALID,917.044,VALID,0,VALID,97.5569,VALID,0,VALID,18.8463,VALID,176,VALID,0.603516,
2011-04-21, 02:51:05,VALID,917.003,VALID,0,VALID,97.5645,VALID,0,VALID,18.8268,VALID,176,VALID,0.699609,
2011-04-21, 02:52:05,VALID,916.979,VALID,0,VALID,97.5569,VALID,0,VALID,18.824,VALID,176,VALID,0.617578,
2011-04-21, 02:53:05,VALID,916.964,VALID,0,VALID,97.5492,VALID,0.107441,VALID,18.8045,VALID,176,VALID,0.43125,
2011-04-21, 02:54:05,VALID,916.942,VALID,0,VALID,97.5645,VALID,0,VALID,18.8254,VALID,176,VALID,0.694531,
2011-04-21, 02:55:05,VALID,916.895,VALID,0,VALID,97.5569,VALID,0,VALID,18.8254,VALID,176,VALID,0.276953,
2011-04-21, 02:56:05,VALID,916.904,VALID,0,VALID,97.5569,VALID,0,VALID,18.8449,VALID,176,VALID,0.485938,
2011-04-21, 02:57:05,VALID,916.864,VALID,0,VALID,97.5645,VALID,0,VALID,18.8449,VALID,176,VALID,0.230859,
2011-04-21, 02:58:05,VALID,916.839,VALID,0,VALID,97.5645,VALID,0,VALID,18.8629,VALID,176,VALID,0.371484,
2011-04-21, 02:59:05,VALID,916.821,VALID,0,VALID,97.5416,VALID,0,VALID,18.8644,VALID,176,VALID,0.458203,
2011-04-21, 03:00:05,VALID,916.826,VALID,0,VALID,97.5645,VALID,0.107441,VALID,18.8449,VALID,176,VALID,0.494531,
2011-04-21, 03:01:05,VALID,916.776,VALID,0,VALID,97.5797,VALID,0.107441,VALID,18.8449,VALID,176,VALID,0.423828,
2011-04-21, 03:02:05,VALID,916.754,VALID,0,VALID,97.5645,VALID,0.107441,VALID,18.8045,VALID,176,VALID,0.634766,
2011-04-21, 03:03:05,VALID,916.759,VALID,0,VALID,97.5569,VALID,0.107441,VALID,18.824,VALID,176,VALID,0.874219,
2011-04-21, 03:04:05,VALID,916.757,VALID,0,VALID,97.5569,VALID,0,VALID,18.8059,VALID,177,VALID,0.700781,
2011-04-21, 03:05:05,VALID,916.709,VALID,0,VALID,97.5797,VALID,0,VALID,18.8254,VALID,177,VALID,0.707031,
2011-04-21, 03:06:05,VALID,916.717,VALID,0,VALID,97.595,VALID,0.107441,VALID,18.8254,VALID,177,VALID,0.210938,
2011-04-21, 03:07:05,VALID,916.722,VALID,0,VALID,97.5721,VALID,0,VALID,18.8463,VALID,176,VALID,0.166797,
2011-04-21, 03:08:05,VALID,916.702,VALID,0,VALID,97.5873,VALID,0,VALID,18.8073,VALID,177,VALID,0.190234,
2011-04-21, 03:09:05,VALID,916.701,VALID,0,VALID,97.5645,VALID,0,VALID,18.7864,VALID,176,VALID,0.385547,
2011-04-21, 03:10:05,VALID,916.686,VALID,0,VALID,97.5645,VALID,0,VALID,18.7878,VALID,177,VALID,0.537891,
2011-04-21, 03:11:05,VALID,916.682,VALID,0.2,VALID,97.5645,VALID,0,VALID,18.7683,VALID,177,VALID,0.966797,
2011-04-21, 03:12:05,VALID,916.671,VALID,0,VALID,97.5721,VALID,0,VALID,18.7878,VALID,177,VALID,0.809375,
2011-04-21, 03:13:05,VALID,916.686,VALID,0,VALID,97.5797,VALID,0,VALID,18.7488,VALID,177,VALID,0.740234,
2011-04-21, 03:14:05,VALID,916.65,VALID,0,VALID,97.5645,VALID,0,VALID,18.7669,VALID,177,VALID,0.483594,
2011-04-21, 03:15:05,VALID,916.632,VALID,0,VALID,97.5721,VALID,0,VALID,18.7669,VALID,177,VALID,0.430469,
2011-04-21, 03:16:05,VALID,916.598,VALID,0,VALID,97.595,VALID,0,VALID,18.8059,VALID,177,VALID,0.231641,
2011-04-21, 03:17:05,VALID,916.613,VALID,0,VALID,97.5873,VALID,0,VALID,18.7279,VALID,177,VALID,0.242578,
2011-04-21, 03:18:05,VALID,916.589,VALID,0,VALID,97.5797,VALID,0,VALID,18.7279,VALID,176,VALID,0.330078,
2011-04-21, 03:19:05,VALID,916.605,VALID,0,VALID,97.5873,VALID,0,VALID,18.7878,VALID,177,VALID,0.467969,
2011-04-21, 03:20:05,VALID,916.578,VALID,0,VALID,97.5721,VALID,0,VALID,18.7084,VALID,177,VALID,0.670313,
2011-04-21, 03:21:05,VALID,916.552,VALID,0,VALID,97.595,VALID,0,VALID,18.7084,VALID,176,VALID,0.729688,
2011-04-21, 03:22:05,VALID,916.579,VALID,0,VALID,97.5721,VALID,0,VALID,18.707,VALID,177,VALID,0.494531,
2011-04-21, 03:23:05,VALID,916.533,VALID,0,VALID,97.5797,VALID,0,VALID,18.7279,VALID,176,VALID,0.276953,
2011-04-21, 03:24:05,VALID,916.552,VALID,0,VALID,97.5721,VALID,0,VALID,18.7279,VALID,177,VALID,0.244141,
2011-04-21, 03:25:05,VALID,916.538,VALID,0,VALID,97.5721,VALID,0,VALID,18.6875,VALID,177,VALID,0.457031,
2011-04-21, 03:26:05,VALID,916.549,VALID,0,VALID,97.5797,VALID,0,VALID,18.7084,VALID,176,VALID,0,
2011-04-21, 03:27:05,VALID,916.518,VALID,0,VALID,97.595,VALID,0,VALID,18.7084,VALID,177,VALID,0.0410156,
2011-04-21, 03:28:05,VALID,916.506,VALID,0,VALID,97.6102,VALID,0,VALID,18.7669,VALID,177,VALID,0.0355469,
2011-04-21, 03:29:05,VALID,916.464,VALID,0,VALID,97.595,VALID,0,VALID,18.746,VALID,177,VALID,0.273047,
2011-04-21, 03:30:05,VALID,916.467,VALID,0,VALID,97.5797,VALID,0,VALID,18.7279,VALID,177,VALID,0.0117188,
2011-04-21, 03:31:05,VALID,916.428,VALID,0,VALID,97.5873,VALID,0,VALID,18.7474,VALID,176,VALID,0.488281,
2011-04-21, 03:32:05,VALID,916.427,VALID,0,VALID,97.5873,VALID,0,VALID,18.7279,VALID,177,VALID,0.657031,
2011-04-21, 03:33:05,VALID,916.408,VALID,0,VALID,97.6102,VALID,0,VALID,18.7084,VALID,177,VALID,0.674609,
2011-04-21, 03:34:05,VALID,916.398,VALID,0,VALID,97.6026,VALID,0,VALID,18.7265,VALID,177,VALID,0.639844,
2011-04-21, 03:35:05,VALID,916.397,VALID,0,VALID,97.595,VALID,0,VALID,18.7474,VALID,177,VALID,0.963281,
2011-04-21, 03:36:05,VALID,916.406,VALID,0,VALID,97.6102,VALID,0,VALID,18.7265,VALID,177,VALID,0.331641,
2011-04-21, 03:37:05,VALID,916.397,VALID,0,VALID,97.6102,VALID,0.107441,VALID,18.707,VALID,177,VALID,0.630859,
2011-04-21, 03:38:05,VALID,916.419,VALID,0,VALID,97.6026,VALID,0,VALID,18.707,VALID,177,VALID,0.364844,
2011-04-21, 03:39:05,VALID,916.414,VALID,0,VALID,97.6102,VALID,0,VALID,18.7056,VALID,177,VALID,0.410937,
2011-04-21, 03:40:05,VALID,916.398,VALID,0,VALID,97.6102,VALID,0,VALID,18.7655,VALID,177,VALID,0.778125,
2011-04-21, 03:41:05,VALID,916.406,VALID,0,VALID,97.6026,VALID,0,VALID,18.7669,VALID,177,VALID,0.857422,
2011-04-21, 03:42:05,VALID,916.41,VALID,0,VALID,97.6331,VALID,0,VALID,18.7669,VALID,113,VALID,0.457422,
2011-04-21, 03:43:05,VALID,916.396,VALID,0,VALID,97.6102,VALID,0,VALID,18.7669,VALID,144,VALID,0.378125,